Погода в Накуру

Кения     0°14′13″N   36°08′27″E
темп.,
°C
ветер,
м/с
пор.,
м/с
влажн.,
%
обл.,
%
осадки,
мм/ч
давл.,
гПа
погр.,
м
27 ноября, сб
сб2700:00+12св128853 0.1 101846
03:00+11всв128857 0.1 101831
06:00+12в238698 0.0 101872
09:00+14вюв127998 0.0 1018153
12:00+20св4547100 0.3 10141733
15:00+20всв245196 0.3 10121197
18:00+15всв367492 0.3 1014299
21:00+13всв2483100 0.4 1017149
28 ноября, вс
вс2800:00+13всв2486100 0.1 1017165
03:00+11св229332 0.3 101731
06:00+12ссв238993 0.1 1017127
09:00+15в3972100 0.4 1018921
12:00+20всв465192 0.3 10141875
15:00+19св575935 1.2 10121419
18:00+16св5107562 0.5 1014600
21:00+14св388597 0.5 1017403
29 ноября, пн
пн2900:00+13св248680 0.0 1017224
03:00+12св229278 0.1 1016114
06:00+11всв118992 0.0 101712
09:00+18всв156050 0.0 10171011
12:00+21св454793 0.1 10131863
15:00+17св596593 0.8 1012647
18:00+14св378681 1.4 1014347
21:00+13всв249286 2.1 1017136
30 ноября, вт
вт3000:00+12всв239383 0.3 1017124
03:00+12ссв249489 0.3 1016155
06:00+11св249515 0.0 1017140
09:00+17св376571 0.0 1016991
12:00+21св5649100 0.1 10121878
15:00+18св6762100 0.4 10111011
18:00+14св4981100 0.4 1014463
21:00+14св378687 0.4 1016345
1 декабря, ср
ср100:00+13св369154 0.0 1016318
03:00+13ссв238992 0.1 1015239
06:00+12св249328 0.0 1016202
09:00+17св256034 0.0 1016799
12:00+21ссв553991 0.0 10122111
15:00+18св3747100 0.0 1011589
18:00+17св485778 0.0 1012473
21:00+14св487694 0.0 1015397